weather station
Area: 4758 km2
The highest point: Sněžka (1603 m.s.l.)
Total stations: 33
Stations online: 32
Stations offline: 1
Current weather
-5°C

Meteorological map - weather stations in Královéhradecký

. The meteorological maps show weather information from WARIO weather stations

Weather stations Královéhradecký

 UpdatesNameStatusTemperatureHumidityWind speedWind direction
28.1.2023 21:26Jičín-4.2 °C81.1 %0.7 m/s E
28.1.2023 21:25Božanov-5.7 °C98.3 %0.9 m/s NW
28.1.2023 21:26Červený Kostelec - Bohdašín-7.5 °C89.0 %0.0 m/s N
28.1.2023 21:25Červený Kostelec - Stolín-4.3 °C87.7 %0.7 m/s S
28.1.2023 21:26Brzice-6.1 °C98.9 %3.7 m/s N
28.1.2023 21:26Chlumec nad Cidlinou II-3.3 °C90.8 %1.4 m/s NE
28.1.2023 21:26Dolany-3.9 °C85.3 %1.5 m/s N
28.1.2023 21:26Vrchlabí-5.6 °C80.0 %0.7 m/s S
28.1.2023 21:26Dvůr Králové nad Labem-3.9 °C71.7 %1.9 m/s E
28.1.2023 21:26Horní Lánov-5.0 °C78.2 %0.9 m/s S
28.1.2023 21:26Černilov-3.6 °C96.7 %0.0 m/s NE
28.1.2023 21:26Hronov-6.1 °C90.7 %3.0 m/s E
28.1.2023 21:26Jaroměř-Josefov-3.2 °C75.3 %0.7 m/s E
28.1.2023 21:26Jičín-4.3 °C76.7 %1.3 m/s NW
28.1.2023 21:26Kacákova Lhota-3.4 °C67.5 %1.3 m/s N
28.1.2023 21:26Červený Kostelec - Kemp Brodský-5.8 °C85.0 %1.2 m/s E
28.1.2023 21:26Dvůr Králové nad Labem-3.8 °C82.3 %1.7 m/s E
28.1.2023 21:26Vysokov-6.3 °C95.6 %4.1 m/s NE
28.1.2023 21:26Hradec Králové-1.7 °C76.3 %0.4 m/s NW
28.1.2023 21:26Pecka - Horní Javoří-4.9 °C84.3 %0.7 m/s SE
28.1.2023 21:26Hajnice-6.2 °C81.2 %2.1 m/s E
28.1.2023 21:26Janatov-3.7 °C84.7 %2.1 m/s W
7.1.2023 02:27Hradec Králové - Roudnička3.5 °C100.0 %1.1 m/s E
28.1.2023 21:26Pohoří-4.0 °C72.2 %3.5 m/s NW
28.1.2023 21:26Zábřezí - Řečice-4.3 °C83.2 %0.9 m/s S
28.1.2023 21:26Sobotka-4.8 °C100.0 %0.8 m/s SE
28.1.2023 21:26Strážné-6.3 °C81.2 %0.0 m/s SW
28.1.2023 21:26Třebihošť-5.2 °C90.6 %2.1 m/s SW
28.1.2023 21:25Velká Jesenice-4.3 °C79.1 %1.7 m/s NE
28.1.2023 21:26Vrchlabí-5.1 °C89.9 %0.0 m/s NE
28.1.2023 21:26Vrchovnice-3.4 °C82.2 %1.3 m/s W
28.1.2023 21:26Vysoká nad Labem-3.5 °C80.1 %1.7 m/s N
28.1.2023 21:26Dvůr Králové nad Labem-4.0 °C72.1 %0.7 m/s E
Email notifications
Enter your email address to subscribe to notifications about news at warioweather.com. Your email address will not be used for any purpose other than sending these emails and will not be provided to any third party. The subscription can be ended at any time.
All data are only indicative. The portal administrator has no responsibility for potentially incorrect data and related consequences. Publishing or further sharing of content from www.warioweather.com is only allowed with written consent from WANET s.r.o.